Theta_e
327 327 326 326 327 327 328 326 321 321 322 320 317 313 310 308 307 306 305 304 304 304 304 304 304 304 304 304 305 306 306 307 308 309 309 308 308 308 307 306 306 306 306 306 306 306 305 305 306 307 309 309 308 309 309 309 310 313 319 318 316 319 318 318 322 314 311 315 311 307 307 311 315 313 313 315 315 316 316 317 318 319 319 319 319 319 319 318
320 319 317 318 322 320 317 313 309 309 309 307 306 304 304 304 304 304 305 305 305 305 305 305 304 304 304 304 305 306 307 308 309 308 308 307 307 307 307 306 306 306 306 306 305 305 306 305 306 307 308 308 308 309 309 309 309 314 318 314 318 323 316 313 314 309 309 311 307 306 307 309 312 311 312 315 314 314 315 315 314 314 315 316 316 317 317 317
310 307 307 309 312 309 306 305 304 305 304 304 305 305 305 305 306 306 305 306 305 305 305 305 305 304 304 304 304 306 307 308 308 308 308 307 307 307 306 306 306 306 306 306 306 306 306 306 306 307 308 308 308 309 309 310 309 311 313 316 323 317 310 309 308 306 307 307 305 306 306 307 309 310 311 314 313 312 314 314 312 312 312 313 314 314 314 315
310 307 304 304 306 304 304 305 305 305 305 306 306 306 306 306 306 306 306 306 306 305 305 305 305 305 305 304 305 306 307 308 308 307 307 307 306 306 305 306 305 305 305 306 306 306 306 306 307 307 308 307 307 309 308 309 310 309 311 319 318 309 309 309 306 306 305 305 305 305 306 306 307 308 309 311 312 312 311 311 311 311 311 311 312 311 312 312
309 308 305 305 304 304 305 305 305 306 306 306 306 307 307 307 307 306 306 306 306 306 305 305 305 305 305 305 305 306 308 309 308 306 306 306 305 305 306 306 305 305 305 306 306 306 306 306 306 307 307 306 306 307 307 307 309 310 311 311 308 306 310 308 304 306 305 305 305 304 305 306 306 306 307 310 313 312 309 309 310 310 310 311 311 311 311 311
306 307 306 305 304 305 305 305 306 306 307 307 307 307 307 307 307 307 306 306 307 306 306 305 305 305 305 304 305 307 308 309 307 305 305 305 305 306 306 305 305 305 305 306 306 305 306 306 306 307 306 305 305 306 307 306 307 311 310 304 304 306 307 306 305 305 305 305 305 304 305 305 304 305 306 307 310 309 307 308 308 308 309 309 309 309 309 309
307 306 306 305 304 305 305 306 306 306 307 307 307 307 307 307 307 307 307 306 306 306 306 305 305 305 305 304 305 307 307 307 306 304 304 305 306 305 305 305 305 305 306 306 305 306 306 306 306 306 306 305 304 305 306 306 306 310 310 304 304 305 304 305 305 305 305 304 305 304 304 303 304 305 304 304 307 307 306 306 306 306 306 306 307 307 306 306
306 305 305 305 305 305 305 306 306 307 307 308 308 308 308 307 307 307 307 306 306 306 306 305 305 305 304 304 306 307 308 306 305 304 304 304 306 306 305 305 305 306 305 305 305 305 305 306 306 305 305 305 305 305 305 306 306 308 309 304 303 304 304 305 304 305 305 304 304 304 303 303 303 303 302 304 306 306 305 306 306 306 306 306 306 305 306 304
304 304 305 305 305 305 306 306 306 308 308 308 308 308 308 307 307 307 306 307 306 306 306 305 305 304 304 304 306 308 307 305 304 304 304 304 305 306 305 305 305 306 305 305 305 305 306 306 306 305 305 304 305 306 305 306 306 306 306 304 303 304 303 303 304 304 304 304 304 303 302 302 302 302 303 304 305 305 305 306 306 306 306 306 305 305 305 304
304 305 305 305 306 306 306 306 307 308 308 308 307 307 307 307 307 307 307 306 306 306 305 305 305 305 306 306 308 309 306 304 304 304 303 304 305 306 306 305 306 306 305 305 305 305 306 306 306 306 305 305 306 305 305 307 307 304 304 303 303 303 302 303 303 303 303 303 302 302 302 302 301 302 304 305 305 304 305 305 305 305 305 305 305 304 304 303
305 305 305 305 306 306 306 307 307 308 307 307 307 307 307 307 307 306 306 306 305 305 305 306 307 307 308 308 308 306 305 304 303 303 303 303 305 306 306 306 306 306 306 305 305 306 305 306 306 305 306 306 306 305 304 305 305 304 303 304 303 302 302 302 302 302 303 303 302 301 301 300 299 302 305 304 304 304 304 304 304 305 305 304 304 304 304 303
305 305 305 305 305 306 307 307 308 307 307 306 307 307 306 306 306 305 306 305 306 306 307 308 307 307 307 307 306 305 303 303 303 303 303 303 304 305 306 306 306 306 306 306 306 306 306 307 305 305 306 306 306 305 305 304 303 304 303 306 307 306 305 301 300 301 301 303 302 301 302 302 302 305 305 303 303 303 303 303 303 303 304 303 303 303 303 303
304 304 304 305 305 306 307 307 307 307 307 307 307 306 305 305 305 306 306 307 307 307 308 308 307 308 307 306 305 303 303 303 303 303 303 303 303 305 306 306 306 306 306 306 306 306 307 307 306 306 306 305 306 304 305 303 302 304 302 305 311 312 308 300 299 301 300 302 302 301 303 304 305 305 302 302 302 302 302 301 301 301 301 301 301 301 301 301
305 305 305 305 305 306 307 307 307 306 307 307 306 305 305 306 306 307 307 308 308 308 309 308 308 308 307 306 305 303 303 302 303 303 303 304 304 305 306 306 306 306 306 306 306 306 306 307 306 306 305 306 305 303 306 305 305 306 302 306 310 308 308 302 297 301 302 302 301 301 305 306 304 302 301 301 301 300 300 299 299 299 299 300 300 300 300 300
305 305 305 306 306 306 306 306 307 306 307 307 306 306 306 306 307 307 307 307 307 307 308 308 308 308 307 306 304 303 302 302 303 303 303 304 304 305 306 306 306 306 307 306 306 307 306 306 305 305 304 304 305 307 311 308 308 306 303 310 308 304 309 305 295 297 301 301 300 301 305 307 304 301 301 301 300 298 298 299 299 299 299 300 300 300 300 299
305 305 305 305 305 306 306 306 307 306 307 306 306 306 306 307 307 307 307 307 307 307 307 307 308 308 308 306 304 303 302 303 303 302 303 304 304 305 305 305 306 306 306 306 307 306 306 306 304 302 301 303 307 311 312 310 313 309 304 306 307 304 308 305 298 294 296 298 299 301 303 306 304 301 300 300 299 298 297 299 299 299 300 299 300 300 300 300
305 305 305 304 305 305 305 306 306 307 307 306 306 306 307 307 307 307 307 306 307 306 305 306 307 308 307 305 303 303 302 302 302 302 303 304 305 305 305 305 305 306 306 306 306 306 306 306 304 303 302 301 302 307 309 312 314 311 306 307 304 303 305 305 303 296 294 298 300 301 301 304 303 299 299 299 297 297 297 299 299 299 299 299 299 300 300 300
306 305 304 304 304 304 305 305 306 307 306 306 307 307 307 307 307 307 307 307 306 306 306 305 306 308 306 303 302 302 302 302 302 302 303 304 305 306 306 306 306 306 307 306 305 306 306 303 303 307 307 305 305 310 311 307 303 304 306 306 304 304 304 305 305 299 296 298 299 301 301 302 301 297 297 298 297 298 298 298 298 297 297 298 299 300 300 300
305 305 304 304 304 304 304 305 306 307 306 306 307 306 307 306 306 306 306 307 306 306 308 305 304 306 305 302 302 302 302 302 302 303 303 304 305 305 306 306 306 306 305 306 306 304 303 304 305 307 307 306 305 306 305 301 301 303 304 304 304 305 304 302 304 299 296 299 301 302 300 300 300 299 298 298 298 298 298 298 297 296 296 298 299 300 300 300
305 305 304 304 304 304 304 305 306 306 306 306 306 306 307 306 306 305 304 305 304 304 305 303 302 303 302 302 302 302 302 302 302 303 302 303 305 305 305 305 305 306 304 305 307 301 301 309 308 306 307 305 302 301 301 301 303 303 304 305 304 304 305 302 302 298 294 300 305 301 299 298 299 300 298 297 298 297 296 296 295 295 296 297 298 299 299 299
305 304 304 304 304 304 304 305 306 307 306 306 306 307 308 307 306 305 304 304 304 303 303 302 302 302 302 303 303 302 301 302 302 303 303 303 305 305 304 305 306 305 300 299 303 302 305 309 305 304 304 301 301 301 301 302 303 303 303 304 303 303 305 301 299 298 295 299 304 300 299 300 299 300 298 295 297 296 294 294 294 295 295 296 297 298 298 298
305 305 305 304 304 304 304 306 307 307 306 306 307 308 309 308 307 305 305 305 304 304 304 303 302 302 303 303 303 302 301 302 302 303 304 303 304 305 303 305 309 306 301 300 304 307 310 306 301 299 296 296 299 300 300 302 303 304 301 302 304 302 302 302 298 298 297 298 303 302 300 300 299 300 298 294 295 295 294 293 293 294 294 295 296 297 298 298
305 305 305 304 304 303 305 306 307 306 306 306 307 307 307 307 306 305 306 307 306 305 304 304 303 302 303 303 302 302 301 301 302 303 304 304 303 303 302 306 312 308 304 309 310 306 305 302 298 294 294 299 301 299 300 302 302 303 301 302 305 301 300 304 300 299 298 297 301 301 300 301 300 301 298 294 295 295 294 294 293 294 294 294 294 296 297 297
305 305 305 305 304 304 305 306 306 306 306 306 306 306 307 307 306 306 308 307 306 306 305 305 304 303 303 302 302 303 301 301 302 302 303 304 303 303 302 303 310 308 304 309 311 305 301 298 295 294 297 301 302 300 301 302 304 305 302 302 305 301 299 301 300 299 298 296 297 299 303 304 301 302 300 296 295 294 293 294 294 293 293 293 294 294 295 296
305 305 305 305 304 304 305 306 306 306 306 306 306 307 308 307 306 306 308 308 308 308 306 305 304 303 303 303 302 303 302 301 302 302 302 303 303 304 302 300 305 307 306 306 306 304 301 296 295 298 300 300 301 303 303 302 305 306 303 301 302 301 299 300 301 300 301 301 297 298 306 308 305 303 301 299 296 294 293 292 292 293 293 293 294 294 295 295
305 305 305 304 304 304 305 306 306 306 306 305 306 307 307 307 307 305 309 314 313 308 306 305 303 303 303 303 302 302 303 302 301 302 302 302 303 303 303 301 300 303 306 304 302 302 299 295 296 300 302 301 301 303 303 302 304 304 300 298 300 300 300 301 300 299 303 303 297 296 303 307 306 305 302 300 298 295 294 292 291 292 292 292 292 293 295 295
305 305 304 305 304 304 304 305 306 307 306 305 305 306 305 306 306 304 309 316 312 305 305 305 303 303 303 302 302 302 303 303 301 302 302 301 303 302 303 304 301 301 300 300 302 303 298 297 298 300 302 302 302 303 302 301 304 303 298 296 301 300 300 301 299 299 301 300 298 296 299 302 305 305 301 298 298 296 295 293 292 291 291 291 292 293 294 294
304 304 305 305 304 304 304 304 305 306 306 306 305 304 305 306 306 306 310 313 306 304 306 304 303 302 303 303 301 301 302 301 302 303 301 301 302 301 303 303 303 304 297 299 306 304 298 301 301 301 303 302 304 304 300 300 301 301 296 297 300 298 299 300 299 301 298 298 303 300 298 301 306 306 300 297 298 297 295 294 292 291 291 291 292 293 294 294
303 304 305 304 304 304 304 304 305 305 306 307 305 304 305 305 305 308 311 309 304 306 306 304 304 302 301 303 302 301 301 301 302 302 302 302 302 302 303 301 300 304 298 298 309 305 299 301 299 300 303 303 305 300 295 299 300 297 294 296 298 296 299 299 299 303 300 301 307 303 298 301 307 307 301 298 300 297 295 294 292 291 291 291 292 293 294 294
303 305 304 305 305 304 303 305 306 305 304 305 304 305 305 306 313 316 311 308 306 305 305 304 303 302 302 303 303 300 300 300 301 301 302 301 301 301 302 300 299 304 304 301 305 302 298 298 297 298 301 300 300 296 293 296 296 294 296 297 297 296 296 298 300 301 302 308 308 300 297 299 304 308 303 299 299 297 296 294 292 291 291 291 292 293 294 294
304 304 304 305 304 304 304 304 306 305 303 305 305 304 304 307 318 319 307 305 306 304 305 303 301 303 305 303 302 302 301 300 299 302 305 303 304 303 301 303 302 305 316 313 303 298 296 300 301 298 297 296 297 297 294 293 293 295 298 298 299 300 297 299 303 300 303 312 306 297 298 299 301 308 305 298 296 296 296 295 292 292 291 291 292 293 293 293
304 304 305 305 304 305 304 303 305 304 303 306 303 305 309 309 312 315 309 306 307 306 305 302 300 304 305 302 300 302 303 301 299 303 307 305 307 306 301 306 306 306 319 316 305 303 302 302 299 297 297 296 299 301 296 295 296 296 299 302 305 307 304 305 308 304 306 309 299 295 298 298 300 304 302 297 295 294 294 293 292 292 291 292 292 292 293 293
304 305 305 305 304 304 305 304 305 304 304 306 302 306 315 314 311 311 310 308 304 304 303 300 300 301 303 302 301 300 300 302 301 301 302 301 305 305 299 301 302 302 309 306 303 310 310 303 298 299 300 297 299 304 301 299 298 297 300 306 309 307 306 308 308 304 305 303 295 293 296 299 302 301 298 296 293 293 292 292 292 292 291 292 292 292 293 292
304 305 305 305 304 304 305 305 304 304 305 303 305 309 311 312 310 306 309 310 303 301 302 301 301 301 300 301 302 300 300 301 301 301 302 301 304 307 303 300 298 302 307 304 301 305 309 308 303 301 302 298 298 300 300 300 301 299 298 300 305 307 305 307 308 307 305 303 297 294 297 305 306 298 295 293 292 292 292 292 292 291 291 292 292 292 292 292
304 305 305 305 304 303 304 304 304 305 303 303 311 314 310 313 311 305 309 311 303 302 302 299 301 303 304 303 301 300 301 300 300 301 302 303 306 310 308 304 301 302 307 308 304 301 303 305 301 296 296 297 299 296 294 299 302 298 295 297 303 307 307 304 303 302 300 300 300 297 299 305 302 295 293 292 291 292 292 291 291 291 291 292 292 292 292 292
304 305 305 305 304 304 303 303 305 304 303 307 312 313 316 317 308 303 306 304 302 303 303 302 302 304 306 306 303 300 299 300 301 302 302 303 306 307 305 305 302 300 304 309 310 304 302 303 299 295 295 294 296 296 293 298 301 297 296 302 300 298 304 305 299 295 295 299 302 299 300 302 299 296 293 292 293 292 291 291 290 291 291 291 292 291 291 291
304 306 306 305 304 304 303 303 304 303 304 308 310 312 316 311 302 302 304 300 301 301 301 305 305 304 306 305 304 302 300 300 301 303 304 303 304 304 304 303 298 297 300 302 305 306 305 305 300 296 300 296 293 295 294 293 297 298 300 302 296 294 300 303 299 300 300 301 302 300 300 302 303 301 294 291 293 293 292 291 290 290 291 291 291 291 291 291
305 306 306 305 305 303 303 303 303 305 305 306 309 312 310 304 299 301 301 300 301 300 300 304 304 302 304 304 304 302 300 303 304 304 304 303 303 303 305 305 298 294 295 295 301 303 302 305 302 295 298 297 292 296 299 295 293 297 297 296 296 299 303 301 299 303 303 301 303 302 298 299 303 303 297 293 294 293 292 292 291 290 290 291 291 291 291 291
305 306 305 305 304 303 303 303 304 306 306 307 313 311 305 304 302 299 301 301 301 301 303 304 301 301 302 304 305 301 299 303 304 302 303 303 303 301 302 303 300 296 294 294 300 302 298 303 304 296 294 296 295 298 303 301 295 294 295 295 297 301 303 301 299 301 303 301 303 303 301 301 301 301 301 298 294 293 293 292 291 290 290 291 291 291 291 290
305 306 305 304 304 303 303 304 306 307 307 309 313 310 303 304 302 299 301 301 300 301 303 302 301 302 303 304 304 301 300 302 301 302 303 302 303 303 300 300 301 298 294 293 298 301 299 299 304 300 294 296 300 300 302 305 302 298 299 299 298 297 298 299 297 298 302 303 303 302 302 304 301 298 301 299 294 293 293 292 292 290 290 292 291 291 291 290
305 306 306 304 304 304 304 306 305 305 308 307 307 307 304 304 302 299 301 301 300 300 300 301 302 303 304 303 301 300 302 304 302 302 304 302 303 304 299 297 300 299 297 297 299 303 300 299 304 304 298 299 302 298 295 299 301 301 302 303 302 299 299 301 298 297 297 299 303 302 300 303 301 295 296 296 293 292 292 291 292 291 291 292 291 291 291 290
306 307 305 303 304 304 305 306 300 298 306 308 304 304 304 303 302 300 300 300 300 299 298 300 301 301 303 302 300 300 303 306 303 302 305 303 302 302 298 295 297 298 300 303 301 299 298 299 302 302 299 299 297 292 289 293 296 298 300 301 301 300 301 302 302 300 297 296 297 297 298 300 296 292 292 292 291 291 291 291 292 291 291 291 290 291 290 290
305 306 304 303 305 304 304 305 300 301 307 305 301 302 302 302 301 300 300 301 301 299 298 301 300 300 301 299 300 301 301 304 305 305 306 304 301 300 296 295 295 296 300 302 299 296 297 299 301 302 303 298 294 291 289 291 293 296 298 297 298 300 301 301 301 300 300 299 297 295 298 300 295 290 290 290 290 291 291 291 291 291 291 291 290 290 290 290
304 304 303 303 305 304 305 307 306 307 309 304 302 303 302 300 300 302 303 302 300 299 301 303 300 299 299 297 299 302 300 302 304 302 302 303 301 298 295 296 295 296 297 300 300 298 300 302 301 302 305 302 299 300 297 295 295 297 300 298 296 299 299 298 297 295 297 300 299 297 299 299 294 290 290 290 290 290 291 291 291 291 290 290 290 290 290 289
303 304 303 303 304 304 306 307 307 310 313 310 308 306 304 302 300 301 302 301 298 298 301 302 298 298 299 298 299 302 301 301 301 300 300 301 300 296 295 296 295 295 297 296 296 296 300 303 302 301 304 302 303 304 304 303 299 296 299 297 295 297 297 298 299 297 298 299 297 298 300 298 294 290 291 291 291 291 290 290 291 290 290 290 290 290 289 289
303 304 304 303 304 304 304 304 304 309 313 311 308 305 305 305 302 298 300 301 299 297 299 299 297 298 300 299 300 303 302 299 299 300 301 303 304 298 295 297 295 294 297 295 294 297 300 301 300 301 303 302 302 302 301 301 300 298 299 298 297 296 295 298 300 299 300 299 297 298 298 297 296 293 292 291 291 291 290 290 290 290 290 290 289 289 289 289
303 304 304 304 304 303 303 303 302 304 304 304 305 303 303 305 303 299 300 300 299 298 298 298 298 300 301 301 302 303 302 299 299 300 301 303 304 297 293 296 296 295 297 295 294 298 302 301 299 300 301 300 300 300 298 297 297 298 298 299 299 297 295 297 298 298 300 299 298 298 297 297 297 296 294 293 291 290 290 289 290 290 290 290 289 289 289 288
304 303 302 303 303 302 302 303 301 300 299 300 302 302 302 305 305 302 302 300 298 299 300 301 300 301 302 302 302 302 302 300 302 303 302 302 302 299 297 296 294 295 295 295 294 296 301 304 300 297 298 298 297 297 297 296 295 295 296 296 297 296 296 297 297 297 298 298 298 298 298 298 297 296 296 295 292 290 290 290 290 290 290 289 289 288 288 288
303 303 302 302 304 302 301 302 300 300 301 300 302 303 304 307 307 303 301 301 302 300 299 303 305 302 302 300 299 301 303 302 303 303 303 303 301 301 303 300 296 294 294 295 294 293 298 304 300 296 298 297 296 297 296 295 296 295 295 295 294 295 296 296 296 296 296 296 297 297 297 296 296 296 295 293 291 290 290 290 290 289 289 289 288 288 288 287
303 304 302 302 303 301 300 301 300 303 303 299 302 304 303 306 309 304 300 301 305 303 297 302 307 303 301 300 298 301 303 302 302 301 301 302 301 302 306 303 300 296 294 296 296 293 296 302 299 297 299 298 299 299 296 295 296 295 294 294 294 294 295 295 295 295 294 295 295 295 295 295 294 293 292 290 290 290 289 289 289 289 288 288 288 288 287 287
303 303 303 303 303 300 300 300 299 304 306 302 303 306 303 306 307 303 301 301 302 303 300 304 308 303 300 300 300 301 301 299 300 299 298 300 300 300 301 299 301 301 298 296 297 295 296 298 297 298 299 299 299 299 298 297 296 296 297 296 295 295 296 296 295 294 294 295 295 294 295 295 293 291 290 289 289 289 289 288 288 288 288 288 287 287 287 287
302 303 303 304 304 301 299 300 298 302 307 303 302 303 302 302 300 298 302 302 300 300 301 301 301 300 301 303 302 301 300 298 298 298 297 298 297 297 297 295 297 302 300 297 296 295 295 298 300 299 300 300 298 296 297 297 297 300 301 299 299 298 297 296 295 294 294 294 295 295 295 295 293 291 291 290 289 288 288 288 288 288 287 287 287 287 287 287
Wind_Speed
12 11 10 10 11 9 10 8 5 6 6 5 5 6 6 6 7 7 6 6 6 5 3 3 3 4 4 4 1 1 2 1 1 1 2 4 7 10 11 12 11 10 9 7 6 4 4 3 3 2 3 2 3 4 5 3 4 4 2 3 1 2 3 4 5 4 2 2 4 9 10 2 3 6 6 6 7 8 9 11 12 14 16 16 17 17 16 14
13 12 9 8 10 8 7 4 3 5 4 4 4 5 5 5 5 5 5 5 4 3 2 3 3 4 5 4 2 2 3 1 1 2 4 6 9 11 11 11 10 9 8 6 4 3 3 2 2 2 4 3 2 4 5 4 4 3 2 2 2 4 4 3 4 3 2 2 7 8 7 2 4 6 6 4 6 6 6 11 13 15 16 15 16 17 16 16
15 13 10 9 10 7 4 2 3 4 3 4 4 4 3 3 3 2 2 3 2 2 2 3 3 4 5 4 3 3 4 3 1 3 6 8 10 10 10 10 9 8 7 6 5 5 5 2 1 2 4 4 3 4 4 3 3 2 3 1 4 5 3 2 2 2 2 5 7 7 6 6 5 5 5 4 8 8 6 12 14 15 16 14 13 13 13 14
14 15 13 11 10 7 4 3 4 4 4 4 3 2 2 1 1 1 0 1 1 2 2 3 4 5 5 5 4 4 4 3 2 4 7 9 10 9 9 9 8 7 6 5 5 5 5 3 1 3 4 3 3 4 3 2 1 2 4 2 4 3 1 2 2 2 3 5 6 7 8 7 6 6 7 5 5 7 10 14 14 14 14 12 11 11 11 12
14 15 13 11 9 7 5 5 5 5 5 4 3 3 2 2 1 1 1 1 2 3 3 3 4 5 6 5 3 5 3 1 3 5 8 9 9 8 8 8 7 6 5 5 4 5 5 3 2 3 3 3 2 3 2 1 2 2 2 2 2 4 1 1 1 2 4 4 6 7 6 7 8 8 8 6 4 9 14 16 15 14 13 13 14 15 15 14
14 13 11 9 7 6 5 5 5 5 4 4 4 3 2 1 1 1 1 2 3 3 4 3 4 4 5 5 4 5 3 0 3 6 8 8 7 7 7 7 7 5 5 5 5 5 4 3 2 3 3 2 2 3 2 1 2 2 1 1 2 4 1 1 0 2 4 5 7 7 7 8 9 9 10 10 15 20 22 21 21 20 19 20 20 19 18 16
13 10 8 7 5 4 4 4 5 4 4 4 3 3 1 0 1 2 2 3 3 4 4 4 3 4 5 5 5 5 4 2 2 6 7 8 6 6 7 6 6 5 5 6 5 4 3 3 3 4 4 3 1 2 3 2 2 2 1 0 2 3 1 1 2 3 5 7 9 9 9 9 7 8 9 17 26 26 25 25 25 24 23 23 21 19 17 14
8 5 4 4 3 3 4 4 4 4 4 3 3 2 1 1 1 2 2 2 3 4 4 4 4 5 5 6 6 5 3 0 4 5 6 6 5 5 5 6 6 6 7 7 5 2 2 3 4 4 3 3 2 2 3 2 2 3 1 2 2 2 1 3 4 4 6 8 11 11 9 9 9 9 12 22 29 22 19 19 18 19 19 19 18 17 14 12
4 3 2 2 1 3 4 4 4 3 3 3 2 2 2 1 1 1 2 2 3 5 5 5 5 5 6 6 6 4 1 2 5 6 6 5 4 4 4 5 6 7 7 7 6 4 3 4 5 3 3 3 4 3 3 2 1 0 1 1 1 0 2 5 4 4 8 9 11 9 8 12 10 8 12 17 17 12 11 11 12 13 13 14 15 14 12 11
3 3 2 1 1 2 3 3 3 3 3 3 2 2 1 0 1 1 2 3 4 6 6 6 6 6 6 5 5 2 2 4 5 7 7 4 2 2 3 4 5 6 6 6 6 5 5 5 4 5 5 4 5 3 3 3 1 1 2 3 3 2 4 9 5 4 9 7 9 8 7 14 8 2 7 9 9 10 10 10 11 11 11 12 13 13 12 12
3 2 2 2 2 2 3 3 3 3 3 3 2 1 1 1 2 2 3 4 6 6 7 7 7 6 5 4 4 3 1 3 5 7 6 3 2 2 1 3 3 5 4 5 6 7 7 6 4 4 3 3 3 3 4 3 2 2 2 2 4 4 3 11 6 6 11 3 11 12 8 8 2 4 6 8 10 12 12 12 12 13 13 14 14 14 14 14
3 2 2 3 3 3 3 3 3 3 3 2 2 2 2 3 3 4 5 6 7 7 8 7 6 6 5 3 3 3 2 3 5 7 7 4 3 2 1 1 2 4 4 5 6 7 7 6 5 3 3 4 3 2 3 3 2 3 5 1 6 7 3 12 8 8 10 2 15 17 5 4 1 7 6 8 13 14 14 16 16 17 17 17 17 18 18 18
4 3 3 3 3 3 3 3 3 3 3 2 2 2 3 4 5 6 6 7 8 7 7 5 5 3 2 3 3 3 5 5 5 7 7 5 2 2 2 1 1 2 3 4 5 6 6 5 5 5 6 5 3 2 3 3 2 1 5 2 4 6 3 8 8 10 6 1 17 14 3 5 5 11 10 10 14 15 18 21 21 20 20 20 21 22 22 21
5 4 4 4 4 3 3 3 4 4 3 2 2 3 4 5 6 7 7 7 6 6 5 4 3 1 1 3 3 4 7 7 5 6 5 3 1 2 2 1 1 2 2 4 5 4 5 5 5 6 7 5 5 5 2 4 4 0 2 2 2 3 3 5 7 9 4 3 16 9 2 6 7 12 10 8 13 18 23 25 23 20 18 18 18 19 20 19
5 5 4 4 3 3 3 3 4 4 3 2 3 4 5 6 7 7 7 5 4 3 2 1 1 0 2 3 2 4 6 6 5 6 3 1 1 2 2 2 2 2 2 3 3 3 4 3 3 4 5 4 5 4 2 4 4 2 2 2 2 1 4 5 5 7 4 4 12 6 2 6 9 9 5 11 22 22 23 23 20 19 17 16 15 15 16 15
6 5 4 4 3 2 2 3 3 4 3 3 4 5 6 7 7 6 4 3 1 0 1 2 2 2 2 2 1 3 5 4 5 6 3 3 3 2 2 1 2 2 2 1 2 3 2 2 5 6 5 3 3 3 3 3 3 3 2 1 2 1 3 5 1 4 5 3 6 5 1 5 7 10 14 22 24 18 18 20 19 18 18 17 15 14 14 13
6 5 4 3 2 2 2 2 4 4 4 5 5 6 7 6 5 3 2 1 0 1 1 2 3 3 1 2 1 4 6 5 7 5 3 4 4 4 3 2 2 2 2 1 2 1 1 2 3 4 6 4 2 3 3 3 3 3 3 1 2 2 2 4 2 4 8 1 3 3 3 7 9 17 27 23 16 15 16 17 18 19 19 18 16 15 14 14
6 5 4 3 2 2 2 2 4 6 6 6 6 7 6 4 3 2 1 2 2 3 1 4 2 3 1 3 2 5 6 5 7 3 3 3 3 4 3 2 2 3 3 2 1 2 1 2 3 1 4 5 4 4 4 1 2 1 1 1 2 2 2 4 4 4 9 3 3 2 3 10 12 16 23 19 15 15 13 14 17 20 21 20 18 17 17 17
5 4 4 3 3 3 3 4 5 7 8 7 6 5 3 2 2 1 1 3 3 2 2 4 5 3 1 4 4 6 4 3 7 4 2 2 3 3 2 3 3 4 4 2 1 5 3 3 4 3 2 3 2 3 4 4 4 4 3 3 1 3 3 5 5 3 7 5 4 2 3 9 13 13 17 20 15 13 14 17 20 23 23 22 21 20 20 19
5 4 3 3 3 3 4 5 6 8 8 6 5 3 2 2 1 1 2 4 6 6 4 4 7 3 0 2 4 5 2 2 7 5 0 2 5 4 2 3 4 3 2 1 1 5 4 3 3 2 3 3 4 3 5 4 5 5 4 2 2 3 5 5 4 5 6 5 4 2 3 8 11 11 13 16 14 15 19 21 23 25 25 24 24 24 24 23
5 4 3 2 3 4 5 6 7 8 8 6 5 2 1 1 0 2 4 8 8 7 6 6 7 5 2 2 5 5 0 1 6 4 2 1 6 4 0 2 4 3 3 1 1 3 4 4 1 5 6 5 4 4 5 4 5 4 4 1 2 3 5 5 2 5 5 5 3 3 7 10 9 8 9 11 12 13 17 18 20 23 25 26 27 27 26 25
4 3 3 2 3 4 5 7 8 8 8 7 4 0 2 1 1 2 3 4 4 4 4 5 6 5 3 2 5 6 1 2 4 3 2 1 4 3 1 3 5 2 3 2 1 4 4 2 4 5 7 6 4 4 5 4 4 3 2 1 2 2 4 5 2 4 4 3 5 6 9 10 8 7 7 9 8 10 14 16 19 21 25 27 28 28 27 26
5 4 3 2 2 4 6 8 9 8 7 6 3 2 1 2 3 2 2 3 2 2 2 2 3 4 3 3 4 5 3 2 3 6 6 2 2 3 3 5 4 2 4 3 2 1 1 2 4 7 9 7 5 3 5 4 2 1 2 1 3 2 2 3 3 5 3 1 3 5 7 8 6 2 2 7 8 11 15 19 23 24 25 26 27 29 29 28
6 4 3 2 3 4 7 8 9 7 5 4 2 2 4 5 4 2 3 2 0 1 1 1 2 2 3 4 3 3 5 5 4 8 9 5 4 4 4 4 4 3 2 1 5 5 1 2 4 8 5 4 4 1 4 3 2 2 4 4 3 3 2 3 3 6 4 2 1 4 5 4 3 3 3 5 8 11 15 21 25 26 25 25 27 29 29 29
7 5 3 2 3 4 7 9 9 7 5 4 4 6 6 6 4 3 2 2 2 2 1 1 2 1 1 4 3 1 4 5 5 7 8 7 4 3 3 4 3 2 2 2 4 3 0 2 6 6 3 3 4 1 3 4 1 4 4 6 5 4 3 2 5 6 4 3 2 3 4 3 4 1 2 3 5 8 14 19 21 23 24 26 28 28 28 29
7 6 4 3 3 5 7 8 9 9 6 5 5 6 4 3 4 4 3 3 2 3 1 2 0 1 1 4 3 1 1 3 4 6 6 7 5 3 3 2 2 2 4 3 2 1 1 2 3 4 4 4 3 2 5 5 3 2 3 4 5 4 1 1 3 3 2 3 3 2 2 3 5 3 4 2 4 6 9 13 16 20 22 23 25 26 27 28
7 7 4 2 3 5 6 6 9 11 7 5 5 3 2 2 4 5 3 4 3 2 1 2 2 1 1 3 4 2 1 3 1 3 5 5 4 3 2 1 1 1 3 3 1 0 3 3 2 3 4 3 2 3 5 7 6 2 3 5 5 2 1 1 1 1 2 3 3 1 3 2 4 4 4 2 3 6 7 7 11 16 18 19 22 24 26 26
6 6 4 2 3 5 6 3 6 11 8 5 4 2 2 2 2 4 3 3 2 1 1 1 4 1 3 3 3 2 0 2 1 2 4 5 4 2 1 2 4 3 2 3 2 3 3 5 6 5 4 2 4 4 5 7 3 3 3 4 3 1 1 3 4 2 1 2 4 2 2 2 4 5 2 1 4 4 5 4 6 11 14 17 20 22 25 26
6 5 4 2 3 5 5 2 2 7 10 7 3 2 3 2 2 3 5 1 2 1 1 0 4 2 6 2 2 3 1 1 2 1 2 4 4 3 2 3 6 5 1 1 3 3 1 3 6 7 4 4 4 1 2 4 1 2 5 5 4 4 3 3 3 2 2 2 4 4 1 1 4 5 2 1 3 3 3 3 3 7 11 14 18 21 23 23
5 4 4 2 2 4 5 3 1 3 8 8 4 4 4 2 2 5 3 2 1 1 1 1 2 4 7 2 2 5 2 1 4 3 1 2 3 4 6 5 5 6 1 3 1 3 0 1 2 3 3 4 4 2 2 3 3 6 6 4 3 4 3 2 2 3 3 2 5 5 2 2 2 4 3 3 2 4 5 4 1 4 9 11 15 19 21 21
5 4 3 2 1 3 4 4 2 3 6 6 6 7 5 2 4 5 1 3 0 2 2 1 2 3 5 2 1 4 3 3 6 4 2 2 3 4 5 3 1 3 4 4 1 3 2 1 2 2 3 5 6 4 3 3 4 4 3 2 2 3 3 3 4 3 2 4 5 4 2 2 3 5 3 3 2 3 5 5 4 2 5 9 14 17 18 19
5 4 4 2 1 2 4 4 3 5 6 6 9 8 4 2 2 2 3 3 1 2 1 1 2 2 4 2 0 2 2 3 5 4 2 1 2 1 2 2 2 2 4 2 1 4 2 3 2 0 3 5 4 3 3 3 3 3 2 3 3 4 4 3 3 1 2 5 3 1 1 2 5 7 4 4 3 3 5 6 7 6 6 8 12 14 16 17
5 4 4 3 1 1 4 4 5 7 7 9 11 6 5 4 2 4 2 2 1 1 1 1 2 0 1 2 1 1 1 1 3 3 1 1 2 2 1 3 4 1 1 2 1 4 3 4 1 1 2 4 5 4 1 1 2 3 3 3 2 1 3 5 4 3 4 4 1 2 1 2 5 5 4 6 5 6 8 9 9 9 8 8 10 13 14 15
4 4 4 3 2 2 3 4 6 8 9 12 9 4 5 1 4 3 2 4 2 2 2 1 2 2 1 1 2 2 1 1 1 2 1 1 1 2 2 3 3 3 4 2 0 1 1 4 2 2 1 4 4 3 4 3 3 3 3 4 3 3 2 4 4 3 6 5 2 3 1 3 3 2 2 6 7 9 10 10 10 9 8 8 10 12 12 13
4 4 4 3 3 2 3 5 8 10 13 13 5 5 3 4 4 2 3 4 1 1 1 1 3 3 3 2 2 1 1 1 1 1 1 1 2 3 2 4 4 3 5 2 2 2 1 5 3 1 0 4 3 3 4 4 2 2 2 4 2 3 4 2 3 4 2 4 4 2 3 5 3 2 1 4 7 8 9 9 10 9 7 8 9 10 11 11
4 4 5 4 2 2 3 6 9 11 15 11 5 3 4 4 2 3 3 1 1 1 0 2 2 2 4 4 3 2 1 1 1 1 1 2 3 4 3 3 5 5 5 4 3 2 1 5 3 2 1 2 2 2 2 1 1 1 2 2 4 3 5 3 2 1 3 2 5 2 3 4 2 2 2 4 4 5 6 7 9 9 7 6 7 9 9 8
4 4 5 4 2 2 4 7 11 14 13 7 4 2 5 2 2 4 3 2 1 2 3 1 1 1 2 3 3 3 1 1 2 1 2 3 3 4 3 2 3 5 4 3 3 3 3 3 4 1 1 0 1 1 1 1 2 3 2 4 3 2 4 4 1 3 3 3 5 1 3 4 1 2 3 4 5 6 6 7 9 9 6 4 5 7 7 7
5 5 5 5 4 2 6 9 12 14 9 4 1 4 3 2 2 2 3 3 1 3 4 2 3 2 2 2 3 2 1 1 2 1 1 2 3 4 5 2 2 2 3 3 1 1 3 2 6 1 2 1 1 1 2 2 2 3 3 2 2 2 0 1 1 1 1 3 5 4 3 3 4 4 6 10 11 9 7 7 7 8 8 5 2 4 6 8
6 5 4 5 4 2 7 11 12 10 5 2 2 3 1 1 1 3 5 3 2 2 2 3 2 0 2 3 3 2 2 3 2 1 2 2 2 3 4 3 2 1 1 3 2 1 3 1 4 2 1 1 2 1 3 2 1 2 0 1 1 3 3 2 2 3 3 3 3 4 5 4 6 6 9 14 13 11 9 7 6 9 11 6 1 3 6 10
6 4 3 4 2 4 10 12 10 7 3 2 4 2 1 2 1 3 5 3 2 2 2 3 2 1 3 4 3 2 0 2 3 2 2 2 3 3 2 3 4 3 1 2 1 1 2 2 4 4 3 1 1 3 6 6 4 2 2 2 1 1 2 1 1 2 4 3 2 2 6 7 4 4 8 11 10 10 9 7 7 11 11 5 2 4 7 10
5 3 2 3 1 6 11 9 5 3 2 1 3 1 1 1 1 2 4 4 3 2 2 3 3 3 3 3 2 2 1 2 3 2 3 3 3 2 1 2 7 7 3 2 1 1 2 3 3 3 2 3 5 4 3 5 6 5 5 5 4 3 3 1 4 1 2 3 4 3 6 9 3 2 5 7 7 8 10 9 9 11 8 4 4 5 7 9
4 2 1 2 2 8 10 5 3 3 2 2 2 1 1 1 1 2 4 5 3 2 2 2 3 3 3 3 2 2 3 2 2 3 3 5 5 2 0 3 8 9 6 2 3 2 2 3 1 5 5 5 4 3 0 2 3 4 3 3 4 4 5 4 5 3 1 2 2 3 3 7 2 1 4 7 9 10 13 11 8 9 6 4 6 6 8 10
3 2 1 1 4 10 8 1 3 2 0 2 1 2 3 2 2 2 3 4 3 2 1 1 3 4 3 2 2 2 3 3 4 5 3 4 4 2 0 4 7 7 4 1 2 2 2 2 0 5 5 2 3 4 3 2 2 1 2 2 4 3 3 5 5 3 2 3 3 2 4 6 2 1 4 8 10 11 12 10 7 7 7 6 7 9 10 12
3 1 1 2 6 10 6 1 1 2 3 1 2 2 3 4 5 4 3 4 4 3 2 2 3 3 2 1 2 3 4 3 3 4 2 2 3 2 1 5 8 5 2 2 3 4 3 1 1 2 7 6 5 5 5 3 1 3 3 2 3 3 5 3 3 3 1 6 7 4 7 8 1 1 2 5 6 6 9 10 7 7 8 8 9 10 12 15
2 0 1 3 6 8 4 2 4 2 2 1 3 3 2 3 5 5 4 4 5 4 3 1 1 1 1 2 1 2 3 2 2 2 2 1 3 1 1 4 6 3 0 2 4 5 4 2 3 2 5 7 7 7 5 2 1 2 2 3 4 5 7 4 2 3 4 5 6 5 9 7 1 1 2 3 4 5 7 9 9 8 9 10 11 12 15 17
1 0 0 1 5 6 3 1 2 2 2 1 2 3 1 1 3 4 4 4 4 4 3 2 1 1 1 1 0 2 3 2 1 2 2 3 4 2 1 2 4 4 1 2 3 3 2 1 4 7 8 9 9 7 2 2 1 3 4 5 6 7 7 4 2 4 5 2 2 9 11 9 8 6 7 7 7 6 7 9 11 11 10 11 13 15 17 19
0 1 0 0 2 3 1 1 1 1 2 3 2 2 2 3 3 1 3 4 2 3 4 3 3 3 2 2 2 3 2 0 1 3 3 4 4 3 1 2 3 4 3 3 3 3 3 3 5 8 13 13 9 8 3 1 5 8 6 6 8 6 7 7 9 9 4 3 9 15 9 9 15 10 8 10 10 7 6 9 11 10 11 14 16 18 20 22
0 1 1 1 1 1 1 1 1 3 3 2 2 1 1 2 2 1 3 2 1 3 3 1 2 5 5 5 2 1 1 1 2 3 3 2 2 3 3 1 2 2 2 3 2 4 3 4 4 4 11 11 6 9 9 5 8 9 7 9 11 8 10 14 18 14 6 6 16 15 6 9 16 9 5 8 9 7 7 7 7 10 13 15 17 19 22 24
1 1 2 3 3 3 2 2 2 4 3 1 1 2 2 3 4 4 3 1 2 3 5 2 5 6 6 5 3 2 2 2 4 5 2 2 2 1 2 2 2 1 1 2 1 2 4 3 1 1 8 10 6 10 11 7 8 8 7 11 12 11 13 16 18 16 11 14 19 17 13 15 15 7 3 5 7 6 5 5 8 11 14 16 18 20 22 23
3 2 2 3 3 2 2 2 3 4 2 1 2 3 3 4 5 4 3 5 3 2 5 5 7 5 5 6 5 5 7 7 5 6 4 3 2 2 2 3 2 2 1 2 0 1 3 2 0 4 5 10 4 4 7 5 6 8 9 11 12 12 14 15 16 13 9 14 18 15 14 17 11 1 5 6 6 4 4 6 10 13 14 17 21 22 22 23
5 5 3 2 2 2 2 2 3 4 1 1 3 3 2 4 6 3 3 9 9 5 7 9 6 3 3 4 7 10 14 11 9 11 8 5 6 5 3 3 5 5 2 2 1 2 3 2 2 5 3 8 3 5 7 6 5 8 12 14 14 13 11 10 9 8 9 12 13 9 9 12 5 5 6 5 4 3 4 7 12 16 17 18 21 24 24 23
4 6 5 3 2 2 3 2 3 2 1 3 4 4 3 4 4 3 2 7 10 10 10 10 6 3 2 5 8 12 14 12 12 14 12 12 13 11 8 6 5 6 5 4 1 1 4 2 0 3 2 7 4 4 5 7 8 9 9 10 13 13 10 8 6 7 10 10 7 6 7 5 1 4 2 1 1 2 5 8 12 19 22 21 20 22 22 19
Wind_Direction
150 157 167 176 181 181 190 194 178 190 209 223 235 244 246 247 250 253 254 256 255 249 239 221 213 210 217 224 238 173 169 183 322 323 339 357 0 360 356 354 350 343 340 334 330 318 304 299 261 217 176 132 105 148 160 154 134 130 101 98 183 190 196 191 185 198 194 274 303 340 350 337 299 331 324 307 276 266 271 265 261 261 261 261 266 269 272 279
142 145 153 162 167 160 165 178 180 199 210 219 233 238 240 245 247 254 252 254 252 245 231 214 211 211 216 224 226 190 189 213 310 348 7 5 356 354 354 353 347 341 344 341 344 353 346 322 250 195 177 161 115 144 154 153 145 123 100 124 221 202 206 198 184 212 206 281 299 319 333 308 283 310 318 294 273 293 294 279 274 272 274 272 275 277 276 279
141 131 123 124 134 123 123 163 181 187 189 199 214 218 219 228 235 249 248 249 242 226 212 204 198 207 217 219 218 200 200 222 294 347 0 355 348 350 351 350 346 341 346 351 359 14 16 5 222 178 174 162 128 138 133 122 151 137 110 150 242 212 223 254 220 233 258 286 300 307 308 300 287 289 292 268 287 300 270 269 273 276 286 288 287 289 286 282
139 130 120 109 111 103 107 139 143 147 149 155 159 151 150 151 146 109 168 192 190 188 181 180 182 201 213 210 214 202 207 244 308 342 348 343 342 348 352 350 346 344 350 360 5 13 17 24 93 168 159 141 120 126 117 90 158 170 143 180 226 190 184 292 244 266 296 292 290 299 306 300 299 296 276 268 307 293 263 271 278 282 291 294 293 296 296 289
121 127 120 97 89 87 88 108 113 118 117 111 109 102 103 96 73 89 105 144 167 170 161 163 177 194 203 204 206 193 195 312 321 335 339 335 342 349 353 351 348 349 351 358 8 14 14 26 83 152 136 101 87 105 92 64 124 157 172 217 180 151 160 301 257 294 313 308 293 299 306 302 310 306 280 256 242 263 277 289 290 289 291 292 292 292 292 290
115 122 109 80 68 79 81 92 94 88 89 85 87 81 75 77 85 150 164 171 174 173 169 168 176 189 197 200 196 189 184 121 309 330 339 336 347 354 353 353 352 349 346 357 7 13 18 26 82 131 112 73 63 93 68 53 159 181 294 322 162 167 202 304 296 321 323 319 308 304 298 308 321 313 295 260 249 267 284 289 289 288 289 290 291 291 291 291
115 113 90 69 57 74 79 81 80 73 77 73 71 68 66 88 179 188 194 184 180 179 174 174 179 185 191 191 183 190 194 179 322 340 344 339 350 355 354 359 360 355 352 1 4 8 30 41 101 114 92 79 100 104 55 58 140 138 261 299 159 189 251 301 310 322 323 315 306 302 297 306 319 311 295 271 272 284 289 286 286 285 285 287 288 290 293 296
120 111 81 77 61 67 73 74 75 72 69 59 50 37 17 335 239 209 204 186 184 182 177 179 181 185 188 185 178 178 179 162 341 346 346 338 347 352 356 6 8 4 2 12 21 36 67 70 99 111 97 91 138 128 60 86 86 78 200 230 162 179 283 319 327 314 311 310 302 299 299 299 300 294 278 280 289 296 294 288 286 283 282 283 285 288 289 295
141 146 133 115 77 69 75 73 72 68 54 34 15 359 344 324 233 204 194 183 186 181 180 180 177 180 174 174 182 179 190 324 334 339 345 340 338 349 5 13 15 11 12 28 38 57 88 84 87 104 135 127 125 94 55 103 324 58 145 163 161 342 23 352 329 314 316 310 309 311 314 307 304 302 279 285 302 306 304 301 293 286 281 280 281 283 283 291
164 168 164 140 102 84 84 81 68 55 32 8 352 345 331 3 133 152 162 175 178 175 173 165 159 161 160 176 186 171 277 317 339 336 342 355 339 351 24 21 19 16 24 44 49 62 75 82 86 102 119 119 113 59 38 80 35 150 121 116 75 27 41 9 346 343 339 321 334 337 304 301 294 299 279 289 322 316 312 311 298 291 283 283 279 276 279 288
160 162 155 138 127 113 99 82 55 34 16 3 6 20 54 89 108 131 146 155 157 153 148 143 144 147 154 182 168 131 301 323 350 337 342 30 9 326 33 31 21 21 36 55 57 62 63 70 87 112 114 109 112 55 57 76 81 91 80 170 9 15 52 11 12 5 353 352 351 333 284 307 294 188 253 285 320 316 314 314 308 302 292 291 286 282 282 287
130 129 126 124 126 123 106 80 51 29 20 25 46 66 91 108 123 132 138 138 135 133 131 133 138 144 148 143 122 105 15 349 359 352 352 9 356 277 198 59 28 30 42 52 57 58 57 61 64 87 121 124 127 62 80 70 102 85 49 217 326 4 36 2 6 350 348 22 353 341 295 348 216 219 258 303 316 313 313 311 310 306 299 298 295 293 291 292
94 95 99 103 106 112 103 84 59 41 40 62 93 105 110 119 128 130 131 130 130 132 130 128 130 139 156 130 96 60 13 355 2 2 344 333 335 222 199 140 56 42 45 48 52 53 60 64 58 87 113 121 126 108 123 58 74 119 41 76 335 3 6 358 359 339 346 34 354 358 313 315 238 246 283 306 312 316 315 309 309 307 301 299 296 295 292 292
85 87 91 96 102 104 94 76 62 50 52 80 105 114 121 124 128 128 129 131 134 136 131 126 122 114 156 124 78 33 9 352 354 1 339 322 8 186 205 172 140 82 70 58 54 60 76 79 68 87 91 93 124 124 99 23 38 130 21 58 25 8 288 339 4 355 28 351 351 13 230 287 271 283 302 313 321 323 316 312 317 317 313 309 302 298 296 297
73 75 77 81 88 80 72 70 64 59 67 96 116 121 128 131 133 133 129 129 130 132 147 157 140 176 124 102 64 23 5 345 342 358 14 67 86 169 200 184 162 129 97 60 52 71 83 97 81 73 76 89 120 107 27 359 20 33 18 332 356 43 280 312 10 30 53 308 340 23 207 281 284 289 323 329 325 324 315 319 332 334 335 332 323 317 312 312
53 52 51 57 64 63 69 80 79 82 98 122 131 130 136 142 143 140 139 138 134 193 250 256 249 222 114 74 7 0 0 350 353 2 56 94 85 127 166 192 172 154 131 61 58 84 76 99 88 64 63 87 91 76 46 9 353 7 46 266 307 343 305 314 22 37 25 287 329 17 234 285 285 285 311 323 325 326 320 328 344 348 350 349 343 341 338 339
41 40 40 47 56 69 86 100 104 112 124 135 137 136 141 147 151 156 176 228 233 168 117 342 266 214 86 29 314 353 1 6 6 13 93 99 91 104 117 155 169 172 170 136 92 102 40 83 110 65 52 65 56 78 72 6 317 326 22 66 290 277 299 319 290 354 8 6 315 357 217 257 272 290 309 325 337 333 330 338 353 1 3 6 8 10 12 15
32 31 34 44 61 80 104 129 132 133 138 144 142 140 143 150 172 196 246 252 225 192 176 0 353 178 65 19 18 353 355 4 8 38 119 113 109 109 113 124 151 172 167 156 71 33 33 64 101 74 22 31 26 69 104 212 219 221 343 45 327 303 262 289 277 346 10 8 273 299 249 276 285 297 314 335 349 339 345 357 4 13 15 21 28 32 36 38
24 24 28 39 63 90 128 156 151 149 152 158 157 155 156 158 179 210 294 242 219 204 223 355 30 148 245 4 12 347 347 10 12 32 137 145 132 133 134 123 139 160 154 168 1 24 39 43 65 66 0 6 17 84 128 165 149 150 167 144 221 293 284 269 264 315 359 340 269 229 258 291 301 306 319 336 356 9 17 21 22 24 26 32 39 44 48 49
18 21 27 37 70 104 141 162 164 160 162 170 176 170 156 145 122 76 61 96 111 99 91 39 38 73 240 10 7 347 344 45 15 15 161 198 177 157 115 140 141 111 87 179 307 15 39 56 75 172 206 199 203 155 115 117 111 112 119 125 197 242 284 275 276 305 344 339 268 225 293 285 292 294 307 336 14 32 21 23 27 28 33 40 48 53 56 56
17 18 23 40 81 113 144 163 166 165 167 175 175 154 140 175 45 94 92 85 89 87 77 54 45 51 60 33 9 7 118 126 23 11 1 198 191 193 280 141 120 70 6 291 268 358 49 85 174 217 197 169 169 142 102 87 83 88 120 171 267 224 256 264 272 301 354 6 279 337 333 295 292 293 311 355 30 32 21 25 26 32 43 47 53 58 61 64
20 18 27 45 85 120 146 158 160 163 167 166 164 191 323 276 196 142 112 88 92 85 66 54 43 41 47 21 6 18 83 142 40 27 42 114 183 202 206 85 93 101 349 350 325 2 43 122 222 192 148 108 85 97 86 85 93 80 120 129 302 253 269 292 314 309 353 355 286 348 340 301 302 297 318 14 43 41 40 46 40 44 49 50 57 60 65 69
26 29 39 56 97 131 148 152 155 160 163 164 187 279 357 107 135 121 71 88 111 74 51 40 24 21 28 16 4 24 60 96 35 26 34 68 119 91 105 88 82 98 11 25 148 110 60 245 207 151 132 100 71 67 80 86 101 132 155 159 282 293 335 296 307 322 328 296 284 328 318 298 319 319 26 32 51 56 54 59 56 57 58 56 61 64 66 68
28 35 43 74 125 144 150 154 158 158 163 172 189 152 108 98 106 87 46 71 45 298 178 355 350 349 9 13 4 33 63 71 33 19 28 48 84 72 82 89 79 76 12 43 131 129 172 252 146 128 108 97 109 84 101 107 333 274 197 183 227 263 247 236 295 325 330 28 339 322 320 306 344 90 102 28 46 57 52 56 55 56 62 65 68 68 68 67
27 34 50 94 143 149 153 163 165 161 160 153 145 131 112 92 77 37 34 63 324 284 195 254 337 338 343 3 359 94 72 64 37 19 26 39 57 83 84 81 78 110 195 189 114 111 155 179 145 120 59 90 129 222 195 164 307 306 230 190 183 194 217 272 331 346 357 358 323 11 14 305 311 25 176 332 32 49 42 47 45 45 55 61 65 67 69 69
26 33 49 97 141 146 160 175 176 172 158 140 143 133 122 101 52 11 25 61 328 280 188 205 272 355 307 355 13 136 62 26 25 15 22 28 36 110 111 58 45 125 178 170 107 118 122 126 136 121 116 112 102 262 235 165 122 313 241 173 152 139 129 329 349 13 3 292 283 68 114 240 305 304 218 272 41 52 37 41 37 38 48 54 59 65 68 69
28 32 43 86 136 154 170 182 187 185 168 147 155 135 142 144 35 357 14 44 342 255 139 193 186 18 330 354 16 97 317 329 352 7 18 22 26 106 157 294 66 130 167 138 43 285 129 115 99 105 114 116 127 253 229 148 126 249 219 139 127 130 236 227 126 150 240 283 318 21 147 193 289 274 231 208 95 59 34 33 28 34 44 53 61 66 67 67
28 34 41 74 147 169 177 180 191 193 189 176 167 159 175 176 336 348 72 72 325 203 99 216 179 72 6 5 23 73 56 338 50 337 7 27 25 71 179 214 160 165 166 146 253 269 136 162 187 154 116 166 210 234 197 152 135 251 185 123 112 131 190 152 135 181 271 347 320 296 141 160 260 269 296 160 133 83 53 51 25 30 42 55 65 68 68 67
24 29 35 57 157 176 186 194 197 199 202 198 188 200 178 185 296 20 81 123 299 123 110 302 186 281 344 357 32 35 60 20 36 340 359 43 25 34 88 140 132 128 95 122 207 234 146 182 191 157 148 207 222 278 175 158 160 171 129 88 64 61 65 89 112 134 55 1 253 247 152 148 265 272 297 69 135 142 126 102 41 38 49 60 67 69 69 66
17 23 37 49 152 180 193 202 225 199 199 203 202 175 153 131 49 59 53 250 271 9 292 335 226 299 343 6 354 6 59 1 0 21 63 84 42 51 104 119 108 114 30 10 163 227 53 78 190 166 177 181 144 68 58 97 117 127 110 74 56 43 43 56 67 100 66 299 247 246 239 155 269 273 219 190 187 169 155 141 125 55 60 70 71 69 66 62
11 22 34 34 152 194 198 201 210 175 177 188 178 157 144 83 69 93 222 248 159 342 344 22 302 345 21 79 293 349 21 352 355 27 46 48 39 53 97 110 64 68 5 354 319 297 4 75 257 221 182 139 109 70 37 67 103 109 90 63 31 354 12 27 354 44 90 265 255 247 242 159 218 261 236 216 235 173 156 153 163 130 76 78 74 69 63 57
9 15 21 27 88 199 202 202 193 171 166 159 157 156 137 65 35 168 259 307 3 320 2 19 319 26 33 24 200 327 341 347 7 41 69 30 12 355 113 171 198 17 339 296 304 326 299 226 269 34 182 168 125 80 30 29 58 87 82 55 27 342 356 353 312 316 213 237 245 225 214 193 236 249 216 188 198 178 167 158 155 147 112 90 77 68 61 55
3 5 13 19 36 167 186 191 181 172 165 154 155 150 91 80 235 227 267 318 335 323 30 25 331 39 352 328 300 306 291 260 8 34 134 104 352 301 281 210 180 105 301 225 348 348 322 294 310 97 211 198 161 136 162 271 103 150 170 114 100 47 5 312 284 296 284 260 259 303 283 247 268 268 192 169 170 159 149 146 147 138 119 98 76 65 58 52
358 4 11 19 48 140 160 165 174 170 162 159 153 106 75 122 233 217 265 265 255 359 32 59 2 353 348 283 272 268 206 252 356 23 1 50 15 296 279 241 194 103 101 141 261 122 292 296 237 159 193 182 182 180 164 143 134 183 171 124 143 154 174 262 251 263 289 298 294 296 271 201 225 284 178 154 143 140 141 145 145 137 121 97 72 62 55 48
357 9 14 31 68 136 153 160 171 166 164 163 127 68 127 222 245 195 237 251 248 1 348 68 50 19 329 304 298 257 169 262 322 39 341 179 186 217 214 210 202 144 118 155 250 148 177 267 256 345 295 160 181 210 145 109 108 215 140 108 163 179 154 197 203 195 261 320 298 252 227 217 205 321 308 125 123 137 150 157 152 143 125 93 67 59 52 44
4 13 20 35 72 126 150 167 168 165 169 160 83 66 188 225 223 179 198 183 128 147 118 353 54 55 303 301 326 349 84 237 281 4 288 229 211 208 203 210 197 173 144 156 216 158 144 273 279 28 11 130 144 195 154 136 182 149 126 176 215 175 116 116 235 340 69 300 277 225 242 281 322 288 212 138 144 169 177 183 174 162 136 95 67 56 47 36
20 12 13 26 44 108 154 167 164 168 172 147 90 202 218 226 180 180 168 127 145 132 98 358 262 196 265 284 298 308 327 286 299 330 258 253 245 201 195 230 196 190 183 166 222 196 147 268 286 103 149 272 133 162 25 37 127 121 177 213 203 113 81 98 244 345 42 256 271 237 233 266 291 240 205 185 206 206 206 205 189 179 165 119 67 53 40 26
21 11 12 26 35 105 156 164 165 169 167 116 84 237 224 189 173 164 156 149 138 92 99 186 235 212 200 245 278 262 208 250 291 311 227 255 258 185 161 180 180 201 210 156 203 251 120 277 295 313 157 271 22 127 342 10 94 128 194 204 120 142 178 80 144 235 227 254 277 284 267 233 217 213 191 203 209 199 201 202 194 201 194 173 85 44 27 19
11 14 24 24 28 125 156 162 165 165 142 104 229 250 246 225 227 166 166 165 134 117 154 215 233 332 178 186 225 232 203 217 222 265 213 220 257 198 159 169 166 165 199 141 153 218 107 136 279 293 205 266 32 139 220 236 65 73 151 322 40 155 181 160 151 173 191 230 269 300 308 257 223 204 187 201 201 181 185 194 198 205 195 184 225 359 6 8
356 8 23 12 27 149 160 160 158 149 115 150 205 220 319 277 234 180 181 182 164 149 199 208 171 225 222 207 218 223 241 218 190 192 228 227 252 245 197 147 145 152 189 99 122 148 85 136 248 292 317 238 202 210 199 184 162 136 174 233 281 147 144 192 227 145 143 191 215 273 289 266 232 201 191 195 183 168 177 185 192 197 193 202 294 347 350 351
352 6 14 13 72 162 162 151 131 111 108 179 212 210 287 254 183 193 193 190 199 195 188 186 176 194 207 220 242 209 182 229 203 209 247 236 227 251 307 144 152 150 125 87 156 187 133 160 209 278 282 218 229 241 201 180 170 162 181 198 189 156 120 142 270 266 120 187 189 182 269 269 242 186 185 169 160 169 174 171 182 192 195 232 285 322 330 329
7 28 13 21 140 169 161 134 46 57 115 186 234 218 232 251 184 192 195 197 219 215 186 199 197 193 191 201 215 181 176 215 212 210 236 229 220 231 38 155 161 151 131 137 227 214 136 125 179 264 246 223 255 295 86 178 158 146 188 195 157 142 139 162 228 247 159 213 183 136 259 275 273 174 164 149 154 168 172 171 180 197 212 258 277 294 312 316
21 45 5 36 161 168 158 85 355 353 218 212 240 228 223 221 182 171 193 203 208 185 185 240 208 205 222 203 173 180 198 204 194 201 232 240 240 280 49 160 163 154 128 132 228 174 128 106 233 278 287 318 331 347 22 55 104 158 238 172 146 163 158 164 185 179 178 216 176 128 257 271 292 108 140 148 157 165 176 183 191 211 233 270 283 292 309 318
16 45 122 134 171 175 171 167 196 272 288 312 350 279 235 224 206 192 199 209 199 167 174 235 218 216 235 143 143 204 214 215 213 218 233 225 239 309 19 167 174 171 153 195 176 155 184 214 92 309 314 329 340 350 349 338 201 213 238 198 181 140 102 111 164 130 242 228 180 174 254 260 263 89 144 157 166 175 187 197 212 233 252 282 296 304 317 321
2 344 170 172 188 190 196 181 157 173 255 306 317 285 263 258 230 213 218 224 209 189 191 262 225 188 156 121 113 258 231 217 247 285 344 271 261 305 78 178 191 193 225 186 154 150 189 215 140 188 275 280 283 300 306 281 218 214 236 218 208 170 150 162 156 142 233 234 167 182 245 261 340 88 248 229 206 213 212 214 234 254 269 288 304 314 320 320
7 254 319 193 197 200 216 217 151 138 156 185 289 285 235 271 260 232 225 234 224 206 223 262 195 134 81 119 261 283 252 211 241 321 327 258 268 295 93 206 208 202 187 141 147 133 114 249 206 210 230 236 252 268 249 114 225 239 228 219 215 202 185 156 115 194 212 188 204 230 239 260 274 240 224 230 218 217 229 230 241 260 281 300 312 317 317 319
49 198 285 77 208 218 227 218 182 154 155 174 228 264 229 251 299 295 215 222 222 212 233 245 188 181 185 174 210 260 254 240 287 281 263 238 258 294 276 223 210 210 189 156 168 126 82 281 237 220 238 247 265 281 279 357 268 247 229 232 226 202 177 181 214 226 173 110 260 253 227 242 263 247 211 222 220 209 223 231 244 274 301 312 316 316 316 319
224 218 212 156 193 215 184 256 221 147 139 166 195 209 240 260 290 275 222 227 227 206 217 263 239 218 195 167 169 249 285 338 260 245 256 257 279 330 328 243 196 208 178 154 180 134 132 261 246 209 254 264 279 280 274 269 265 250 229 241 242 212 190 209 229 232 191 208 256 263 230 233 259 258 203 209 209 198 216 241 268 296 307 310 312 313 315 318
285 262 210 192 216 205 180 228 201 149 149 168 203 212 205 215 242 249 216 144 316 227 192 231 263 235 202 178 173 219 232 234 266 262 230 220 249 309 316 258 186 133 120 122 172 143 149 251 241 138 285 284 256 259 268 265 269 271 250 247 251 238 221 225 239 241 226 235 256 267 268 262 265 267 201 181 178 183 221 265 287 299 307 310 309 309 312 316
273 259 206 193 216 189 157 178 151 136 137 154 223 239 202 192 229 258 204 180 233 248 173 216 253 223 194 195 189 218 223 201 234 255 188 161 257 219 219 232 160 92 36 104 126 176 166 244 106 89 310 295 277 281 293 278 267 277 271 258 253 251 245 241 244 243 231 244 256 263 270 271 272 336 109 140 151 171 234 274 292 301 308 310 309 310 312 316
260 250 237 206 208 174 159 168 132 120 128 195 212 235 224 204 210 229 239 215 212 202 185 204 221 172 159 192 198 233 246 230 239 252 224 214 248 227 213 212 146 131 168 171 154 154 161 248 359 65 320 291 346 12 323 307 282 267 267 262 250 242 240 235 236 221 203 228 251 261 266 266 266 87 102 137 144 180 248 284 302 307 308 308 308 311 314 315
266 249 240 226 241 214 175 141 99 110 238 220 199 209 234 239 200 146 322 256 225 224 227 215 195 145 167 211 216 245 264 262 263 269 262 254 252 244 244 237 178 153 170 168 152 171 154 173 28 82 277 281 324 359 320 321 311 279 259 246 239 236 236 240 250 227 201 199 217 236 247 252 144 80 70 125 146 250 279 297 305 308 310 310 308 307 308 308